Погода в Иловае-Дмитриевском

Россия / Тамбовская область     53°11′56″N   40°20′13″E
темп.,
°C
ветер,
м/с
пор.,
м/с
влажн.,
%
обл.,
%
осадки,
мм/ч
давл.,
гПа
погр.,
м
22 апреля, чт
чт2200:00+5ю4892100 0.1 1015278
03:00+5ююз389489 0.4 1016299
06:00+5юз369592 0.1 1017258
09:00+8юз45755 0.1 1019628
12:00+12юз455614 0.0 10191477
15:00+13ююз5656100 0.0 10191451
18:00+12ю4766100 0.0 1019261
21:00+10ю497219 0.0 1020143
23 апреля, пт
пт2300:00+10ю486899 0.0 1020153
03:00+9ю3871100 0.0 1020162
06:00+9ю497796 0.0 1020179
09:00+14ю585985 0.0 1019650
12:00+15ю5750100 0.1 10182018
15:00+15ю5748100 0.1 10171698
18:00+14ююв475710 0.1 1016344
21:00+10ююв612785 0.1 1015332
24 апреля, сб
сб2400:00+9ююв613896 0.3 1013360
03:00+8ю6148717 0.3 1010490
06:00+8юз61092100 0.3 1010650
09:00+4зсз5996100 2.9 1011536
12:00+6зсз367960 0.3 1011788
15:00+10з5653100 0.9 10101599
18:00+8з4564100 0.9 1010911
21:00+6з3374100 1.5 101154
25 апреля, вс
вс2500:00+4з3784100 0.4 1011166
03:00+3зюз337964 0.4 101244
06:00+3зсз5988100 0.0 1013401
09:00+6з57679 0.0 1014997
12:00+8зюз7950100 0.3 10152063
15:00+8з9124499 0.6 10152373
18:00+7зюз612575 0.4 10162000
21:00+4юз511675 0.4 1017322
26 апреля, пн
пн2600:00+3ююз498297 0.0 1017217
03:00+3юз378697 0.0 1017182
06:00+2юз2490100 0.0 1016152
09:00+6ююз3471100 0.0 1016880
12:00+6ююв547899 0.3 1015716
15:00+9ююз5762100 0.3 10131374
18:00+5ю5781100 0.9 1012656
21:00+4ююз4687100 2.1 1012449